2023/07/27 00:00:00, 0.6,23.4
2023/07/27 00:10:00, 0.6,23.5
2023/07/27 00:20:00, 0.5,23.7
2023/07/27 00:30:00, 0.5,23.4
2023/07/27 00:40:00, 0.5,23.3
2023/07/27 00:50:00, 0.6,23.2
2023/07/27 01:00:00, 0.6,23.0
2023/07/27 01:10:00, 0.6,23.2
2023/07/27 01:20:00, 0.6,23.2
2023/07/27 01:30:00, 0.6,23.2
2023/07/27 01:40:00, 0.6,22.9
2023/07/27 01:50:00, 0.6,22.8
2023/07/27 02:00:00, 0.6,22.8
2023/07/27 02:10:00, 0.6,22.8
2023/07/27 02:20:00, 0.5,22.6
2023/07/27 02:30:00, 0.5,22.5
2023/07/27 02:40:00, 0.6,22.6
2023/07/27 02:50:00, 0.6,22.7
2023/07/27 03:00:00, 0.6,22.8
2023/07/27 03:10:00, 0.6,22.5
2023/07/27 03:20:00, 0.6,22.4
2023/07/27 03:30:00, 0.6,22.3
2023/07/27 03:40:00, 0.6,22.3
2023/07/27 03:50:00, 0.6,22.4
2023/07/27 04:00:00, 0.6,22.4
2023/07/27 04:10:00, 0.6,22.2
2023/07/27 04:20:00, 0.6,22.4
2023/07/27 04:30:00, 0.6,22.1
2023/07/27 04:40:00, 0.6,22.4
2023/07/27 04:50:00, 0.6,21.9
2023/07/27 05:00:00, 0.6,22.2
2023/07/27 05:10:00, 0.6,22.0
2023/07/27 05:20:00, 0.6,22.1
2023/07/27 05:30:00, 0.6,21.9
2023/07/27 05:40:00, 0.6,22.4
2023/07/27 05:50:00, 0.6,22.6
2023/07/27 06:00:00, 0.6,22.8
2023/07/27 06:10:00, 0.6,22.9
2023/07/27 06:20:00, 0.5,24.2
2023/07/27 06:30:00, 0.6,29.9
2023/07/27 06:40:00, 0.5,31.6
2023/07/27 06:50:00, 0.4,32.1
2023/07/27 07:00:00, 0.4,33.3
2023/07/27 07:10:00, 0.3,33.1
2023/07/27 07:20:00, 0.3,33.2
2023/07/27 07:30:00, 0.5,32.8
2023/07/27 07:40:00, 0.5,31.2
2023/07/27 07:50:00, 0.6,30.5
2023/07/27 08:00:00, 0.6,31.6
2023/07/27 08:10:00, 0.6,31.6
2023/07/27 08:20:00, 0.6,31.9
2023/07/27 08:30:00, 0.5,32.3
2023/07/27 08:40:00, 0.4,32.7
2023/07/27 08:50:00, 0.5,32.7
2023/07/27 09:00:00, 0.5,32.9
2023/07/27 09:10:00, 0.5,34.1
2023/07/27 09:20:00, 0.6,34.3
2023/07/27 09:30:00, 0.6,34.5
2023/07/27 09:40:00, 0.6,34.8
2023/07/27 09:50:00, 0.7,35.4
2023/07/27 10:00:00, 0.8,35.4
2023/07/27 10:10:00, 0.7,34.7
2023/07/27 10:20:00, 0.7,34.9
2023/07/27 10:30:00, 0.6,34.5
2023/07/27 10:40:00, 0.6,35.0
2023/07/27 10:50:00, 0.6,36.5
2023/07/27 11:00:00, 0.6,36.6
2023/07/27 11:10:00, 0.6,35.6
2023/07/27 11:20:00, 0.7,35.3
2023/07/27 11:30:00, 0.7,35.7
2023/07/27 11:40:00, 0.6,36.0
2023/07/27 11:50:00, 0.7,36.7
2023/07/27 12:00:00, 0.6,35.6
2023/07/27 12:10:00, 0.6,35.7
2023/07/27 12:20:00, 0.5,36.2
2023/07/27 12:30:00, 0.6,35.4
2023/07/27 12:40:00, 0.6,33.9
2023/07/27 12:50:00, 0.7,32.2
2023/07/27 13:00:00, 0.7,31.3
2023/07/27 13:10:00, 0.7,30.8
2023/07/27 13:20:00, 0.6,29.7
2023/07/27 13:30:00, 0.5,26.8
2023/07/27 13:40:00, 0.5,26.1
2023/07/27 13:50:00, 0.6,26.3
2023/07/27 14:00:00, 0.6,27.2
2023/07/27 14:10:00, 0.6,27.3
2023/07/27 14:20:00, 0.5,27.8
2023/07/27 14:30:00, 0.5,28.9
2023/07/27 14:40:00, 0.5,29.1
2023/07/27 14:50:00, 0.5,29.7
2023/07/27 15:00:00, 0.4,28.6
2023/07/27 15:10:00, 0.4,28.7
2023/07/27 15:20:00, 0.4,28.8
2023/07/27 15:30:00, 0.4,29.1
2023/07/27 15:40:00, 0.4,29.2
2023/07/27 15:50:00, 0.4,28.7
2023/07/27 16:00:00, 0.4,28.3
2023/07/27 16:10:00, 0.4,28.2
2023/07/27 16:20:00, 0.5,28.0
2023/07/27 16:30:00, 0.5,27.9
2023/07/27 16:40:00, 0.5,27.7
2023/07/27 16:50:00, 0.5,28.0
2023/07/27 17:00:00, 0.5,28.1
2023/07/27 17:10:00, 0.5,28.5
2023/07/27 17:20:00, 0.5,28.6
2023/07/27 17:30:00, 0.5,28.2
2023/07/27 17:40:00, 0.5,28.6
2023/07/27 17:50:00, 0.5,28.2
2023/07/27 18:00:00, 0.5,28.4
2023/07/27 18:10:00, 0.5,28.0
2023/07/27 18:20:00, 0.5,28.0
2023/07/27 18:30:00, 0.5,27.7
2023/07/27 18:40:00, 0.5,27.5
2023/07/27 18:50:00, 0.5,27.5
2023/07/27 19:00:00, 0.5,27.0
2023/07/27 19:10:00, 0.5,26.5
2023/07/27 19:20:00, 0.5,26.5
2023/07/27 19:30:00, 0.5,26.5
2023/07/27 19:40:00, 0.6,26.0
2023/07/27 19:50:00, 0.6,25.8
2023/07/27 20:00:00, 0.5,25.7
2023/07/27 20:10:00, 0.6,25.5
2023/07/27 20:20:00, 0.6,25.4
2023/07/27 20:30:00, 0.6,25.2
2023/07/27 20:40:00, 0.5,25.1
2023/07/27 20:50:00, 0.6,25.1
2023/07/27 21:00:00, 0.6,25.1
2023/07/27 21:10:00, 0.6,25.1
2023/07/27 21:20:00, 0.5,25.1
2023/07/27 21:30:00, 0.5,24.7
2023/07/27 21:40:00, 0.5,24.5
2023/07/27 21:50:00, 0.6,24.7
2023/07/27 22:00:00, 0.6,24.3
2023/07/27 22:10:00, 0.5,24.3
2023/07/27 22:20:00, 0.5,24.3
2023/07/27 22:30:00, 0.5,24.2
2023/07/27 22:40:00, 0.5,23.7
2023/07/27 22:50:00, 0.5,24.0
2023/07/27 23:00:00, 0.5,24.1
2023/07/27 23:10:00, 0.5,24.0
2023/07/27 23:20:00, 0.5,24.2
2023/07/27 23:30:00, 0.5,24.2
2023/07/27 23:40:00, 0.5,23.9
2023/07/27 23:50:00, 0.5,24.2
